| time (UTC) | temp C | wind direction | speed KPH | gust KPH | rain 1hr cm | rain 24hr cm | rain mn cm | humidity % | barometer mb |
| 20260503194541 | 26 | 331 | 3.2 | 14.5 | 0.00 | 0.00 | 0.00 | 56 | 1009.9 |
| 20260503193041 | 25 | 313 | 3.2 | 12.9 | 0.00 | 0.00 | 0.00 | 60 | 1010.0 |
| 20260503191542 | 23 | 355 | 3.2 | 12.9 | 0.00 | 0.00 | 0.00 | 61 | 1009.8 |
| 20260503190041 | 23 | 350 | 4.8 | 16.1 | 0.00 | 0.00 | 0.00 | 63 | 1010.0 |
| 20260503184600 | 23 | 304 | 6.4 | 14.5 | 0.00 | 0.00 | 0.00 | 62 | 1009.9 |
| 20260503183044 | 23 | 267 | 6.4 | 16.1 | 0.00 | 0.00 | 0.00 | 61 | 1010.0 |
| 20260503181541 | 26 | 34 | 4.8 | 14.5 | 0.00 | 0.00 | 0.00 | 55 | 1010.0 |
| 20260503180040 | 26 | 355 | 3.2 | 11.3 | 0.00 | 0.00 | 0.00 | 60 | 1010.1 |
| 20260503174542 | 25 | 329 | 1.6 | 8.0 | 0.00 | 0.00 | 0.00 | 63 | 1010.2 |
| 20260503081544 | 10 | 163 | 0.0 | 3.2 | 0.00 | 0.00 | 0.00 | 96 | 1012.7 |
| 20260503071600 | 10 | 0 | 0.0 | 6.4 | 0.00 | 0.00 | 0.00 | 95 | 1013.0 |
| 20260503054555 | 11 | 346 | 0.0 | 4.8 | 0.00 | 0.00 | 0.00 | 94 | 1013.5 |
| 20260503053042 | 11 | 0 | 1.6 | 3.2 | 0.00 | 0.00 | 0.00 | 94 | 1013.7 |
| 20260503051536 | 11 | 0 | 0.0 | 3.2 | 0.00 | 0.00 | 0.00 | 94 | 1013.8 |
| 20260503050047 | 11 | 0 | 0.0 | 4.8 | 0.00 | 0.00 | 0.00 | 93 | 1013.6 |
| 20260503044550 | 11 | 0 | 0.0 | 4.8 | 0.00 | 0.00 | 0.00 | 93 | 1013.6 |
| 20260503043047 | 11 | 0 | 0.0 | 3.2 | 0.00 | 0.00 | 0.00 | 93 | 1013.6 |
| 20260503041543 | 11 | 348 | 0.0 | 6.4 | 0.00 | 0.00 | 0.00 | 92 | 1013.7 |
| 20260503040040 | 12 | 0 | 1.6 | 6.4 | 0.00 | 0.00 | 0.00 | 92 | 1013.5 |
| 20260503034536 | 12 | 347 | 1.6 | 4.8 | 0.00 | 0.00 | 0.00 | 91 | 1013.6 |
| 20260503033042 | 12 | 0 | 0.0 | 8.0 | 0.00 | 0.00 | 0.00 | 91 | 1013.5 |
| 20260503031543 | 12 | 348 | 1.6 | 4.8 | 0.00 | 0.00 | 0.00 | 90 | 1013.5 |
| 20260503030041 | 12 | 341 | 0.0 | 4.8 | 0.00 | 0.00 | 0.00 | 89 | 1013.3 |
| 20260503024541 | 13 | 293 | 1.6 | 8.0 | 0.00 | 0.00 | 0.00 | 88 | 1013.1 |
| 20260503023043 | 13 | 339 | 1.6 | 9.7 | 0.00 | 0.00 | 0.00 | 87 | 1012.8 |
| 20260503021551 | 13 | 270 | 3.2 | 8.0 | 0.00 | 0.00 | 0.00 | 87 | 1012.9 |
| 20260503020044 | 13 | 346 | 1.6 | 9.7 | 0.00 | 0.00 | 0.00 | 86 | 1013.0 |
| 20260503014542 | 13 | 9 | 3.2 | 8.0 | 0.00 | 0.00 | 0.00 | 85 | 1013.0 |
| 20260503013042 | 13 | 352 | 3.2 | 9.7 | 0.00 | 0.00 | 0.00 | 85 | 1013.1 |
| 20260503011548 | 13 | 302 | 3.2 | 11.3 | 0.00 | 0.00 | 0.00 | 85 | 1013.2 |
| 20260503010042 | 13 | 5 | 6.4 | 19.3 | 0.00 | 0.00 | 0.00 | 86 | 1013.0 |
| 20260503004600 | 13 | 321 | 6.4 | 17.7 | 0.00 | 0.00 | 0.00 | 85 | 1013.1 |
| 20260503003042 | 13 | 5 | 6.4 | 19.3 | 0.00 | 0.00 | 0.00 | 83 | 1013.0 |
| 20260503001541 | 15 | 45 | 8.0 | 17.7 | 0.00 | 0.00 | 0.00 | 81 | 1013.2 |
| 20260503000059 | 15 | 271 | 4.8 | 14.5 | 0.00 | 0.00 | 0.00 | 80 | 1013.3 |
| 20260502234543 | 15 | 321 | 6.4 | 20.9 | 0.00 | 0.00 | 0.00 | 79 | 1013.5 |
| 20260502233040 | 15 | 341 | 8.0 | 17.7 | 0.00 | 0.00 | 0.00 | 79 | 1013.6 |
| 20260502231536 | 15 | 355 | 8.0 | 19.3 | 0.00 | 0.00 | 0.00 | 79 | 1013.7 |
| 20260502230047 | 15 | 261 | 4.8 | 19.3 | 0.00 | 0.00 | 0.00 | 78 | 1013.9 |
| 20260502224541 | 15 | 281 | 6.4 | 19.3 | 0.00 | 0.00 | 0.00 | 77 | 1014.0 |
| 20260502223041 | 15 | 360 | 8.0 | 20.9 | 0.00 | 0.00 | 0.00 | 77 | 1014.1 |
| 20260502221609 | 15 | 308 | 9.7 | 22.5 | 0.00 | 0.00 | 0.00 | 77 | 1014.2 |
| 20260502220053 | 15 | 25 | 4.8 | 19.3 | 0.00 | 0.00 | 0.00 | 77 | 1014.4 |
| 20260502214543 | 15 | 269 | 11.3 | 20.9 | 0.00 | 0.00 | 0.00 | 78 | 1014.3 |
| 20260502213043 | 15 | 15 | 4.8 | 12.9 | 0.00 | 0.00 | 0.00 | 78 | 1014.4 |
| 20260502211542 | 15 | 15 | 6.4 | 16.1 | 0.00 | 0.00 | 0.00 | 79 | 1014.6 |
| 20260502210040 | 15 | 325 | 6.4 | 19.3 | 0.00 | 0.00 | 0.00 | 78 | 1014.7 |
| 20260502204542 | 15 | 268 | 6.4 | 17.7 | 0.00 | 0.00 | 0.00 | 79 | 1015.0 |
| 20260502203041 | 15 | 355 | 4.8 | 19.3 | 0.00 | 0.00 | 0.00 | 78 | 1015.1 |
| 20260502201545 | 15 | 340 | 4.8 | 16.1 | 0.00 | 0.00 | 0.00 | 77 | 1015.1 |
| 20260502200057 | 16 | 318 | 4.8 | 14.5 | 0.00 | 0.00 | 0.00 | 75 | 1015.1 |